Tracking 35274 objects as of 10-Sep-2026
HD Live streaming from Space Station
objects crossing your sky now

OBJECT N


OBJECT N is no longer on orbit


NORAD ID: 43843
Int'l Code: 2018-102N
Launch date: December 7, 2018
Source: (TBD)
Launch site: Jiuquan Satellite Launch Center, China (JSC)
Decay date: 2024-05-20
Your satellite tracking list
Your tracking list is empty




NASA's NSSDC Master Catalog

Two Line Element Set (TLE):
1 43843U 18102N   24140.97272243  .06998283  25122-5  16865-2 0  9991
2 43843  97.4385 238.5864 0016795 268.5926  91.3443 16.29064881302051
Source of the keplerian elements: AFSPC